Location: Unspecified
(34.8500°N, 0.0000°E)
Time: 08:08:34
(UTC+00:00)

Injun/Solrad 3 - Visible Passes

Search period start: 04 April 2026 00:00
Search period end: 14 April 2026 00:00
Orbit: 870 x 986 km, 66.8° (Epoch: 29 March)

Date Brightness Start Highest point End Pass type
(mag) Time Alt. Az. Time Alt. Az. Time Alt. Az.
4 Apr 10.2 01:42:00 16° N 01:42:00 16° N 01:43:21 10° N visible
5 Apr 10.2 01:52:33 15° N 01:52:33 15° N 01:53:52 10° N visible
6 Apr 10.3 02:03:03 12° NNW 02:03:03 12° NNW 02:04:00 10° NNW visible
7 Apr 10.6 00:29:56 12° NNE 00:29:56 12° NNE 00:30:22 10° NNE visible
8 Apr 10.5 00:40:23 14° N 00:40:23 14° N 00:41:09 10° NNE visible
9 Apr 10.4 00:50:46 14° N 00:50:46 14° N 00:51:44 10° N visible
10 Apr 10.5 01:01:08 13° NNW 01:01:08 13° NNW 01:02:03 10° N visible
10 Apr 10.6 23:27:52 11° NNE 23:27:52 11° NNE 23:28:05 10° NNE visible
11 Apr 10.6 01:11:27 10° NNW 01:11:27 10° NNW 01:11:34 10° NNW visible
11 Apr 10.4 23:38:08 14° N 23:38:08 14° N 23:38:56 10° NNE visible
12 Apr 10.4 23:48:19 15° N 23:48:19 15° N 23:49:37 10° N visible
